When you browse on this site, cookies collect data to enhance your experience and personalize the content and advertising you see.
Visit our Privacy Policy to learn more. By continuing to use the site, you agree to this use of cookies and data.
  • In Hungary
  • List of Countries
  • For 7 days
  • Water Temperature
  • Satellite Maps
  • Weather Map
  • News
  • Weather Widgets
  • user-avatar
    Login

    Hourly Weather Bekes

    Today, 19 February, Tuesday

    Time Temperature Precipitation Wind Pressure Humidity
    00:00 +7°C° 0 mm 1 mps 759 mmHg 73%
    01:00 +7°C° 0 mm 1 mps 759 mmHg 75%
    02:00 +6°C° 0 mm 1 mps 759 mmHg 76%
    03:00 +6°C° 0 mm 1 mps 759 mmHg 77%
    04:00 +6°C° 0 mm 1 mps 759 mmHg 78%
    05:00 +5°C° 0 mm 1 mps 759 mmHg 79%
    06:00 +5°C° 0 mm 1 mps 759 mmHg 80%
    07:00 +5°C° 0 mm 1 mps 759 mmHg 80%
    08:00 +7°C° 0 mm 1 mps 759 mmHg 73%
    09:00 +7°C° 0 mm 2 mps 759 mmHg 66%
    10:00 +9°C° 0 mm 2 mps 759 mmHg 59%
    11:00 +10°C° 0 mm 2 mps 758 mmHg 55%
    12:00 +13°C° 0 mm 2 mps 758 mmHg 51%
    13:00 +13°C° 0 mm 3 mps 757 mmHg 47%
    14:00 +14°C° 0 mm 2 mps 757 mmHg 49%
    15:00 +14°C° 0 mm 2 mps 757 mmHg 50%
    16:00 +14°C° 0 mm 2 mps 757 mmHg 52%
    17:00 +12°C° 0 mm 2 mps 757 mmHg 56%
    18:00 +10°C° 0 mm 2 mps 757 mmHg 59%
    19:00 +9°C° 0 mm 2 mps 757 mmHg 63%
    20:00 +8°C° 0 mm 2 mps 757 mmHg 65%
    21:00 +8°C° 0 mm 2 mps 757 mmHg 67%
    22:00 +7°C° 0 mm 2 mps 757 mmHg 69%
    23:00 +7°C° 0 mm 2 mps 757 mmHg 71%

    Tomorrow, 20 February, Wednesday

    Time Temperature Precipitation Wind Pressure Humidity
    00:00 +6°C° 0 mm 2 mps 757 mmHg 72%
    01:00 +6°C° 0 mm 2 mps 757 mmHg 74%
    02:00 +6°C° 0 mm 2 mps 757 mmHg 76%
    03:00 +5°C° 0 mm 2 mps 757 mmHg 77%
    04:00 +5°C° 0 mm 2 mps 756 mmHg 79%
    05:00 +5°C° 0 mm 2 mps 757 mmHg 80%
    06:00 +4°C° 0 mm 3 mps 757 mmHg 81%
    07:00 +3°C° 0 mm 3 mps 757 mmHg 82%
    08:00 +5°C° 0 mm 3 mps 758 mmHg 76%
    09:00 +7°C° 0 mm 4 mps 758 mmHg 70%
    10:00 +8°C° 0 mm 5 mps 759 mmHg 64%
    11:00 +9°C° 0 mm 5 mps 759 mmHg 57%
    12:00 +10°C° 0 mm 5 mps 759 mmHg 50%
    13:00 +11°C° 0 mm 6 mps 759 mmHg 42%
    14:00 +12°C° 0 mm 5 mps 759 mmHg 44%
    15:00 +12°C° 0 mm 5 mps 759 mmHg 45%
    16:00 +11°C° 0 mm 4 mps 759 mmHg 46%
    17:00 +10°C° 0 mm 4 mps 759 mmHg 51%
    18:00 +8°C° 0 mm 4 mps 759 mmHg 56%
    19:00 +7°C° 0 mm 3 mps 760 mmHg 61%
    20:00 +7°C° 0 mm 3 mps 760 mmHg 65%
    21:00 +5°C° 0 mm 3 mps 760 mmHg 68%
    22:00 +5°C° 0 mm 3 mps 761 mmHg 72%
    23:00 +4°C° 0 mm 3 mps 761 mmHg 74%

    Day after tomorrow, 21 February, Thursday

    Time Temperature Precipitation Wind Pressure Humidity
    00:00 +5°C° 0 mm 2 mps 761 mmHg 76%
    01:00 +4°C° 0 mm 2 mps 761 mmHg 78%
    02:00 +4°C° 0 mm 2 mps 761 mmHg 80%
    03:00 +3°C° 0 mm 2 mps 761 mmHg 81%
    04:00 +4°C° 0 mm 1 mps 761 mmHg 83%
    05:00 +4°C° 0 mm 1 mps 762 mmHg 84%
    06:00 +4°C° 0 mm 1 mps 762 mmHg 85%
    07:00 +4°C° 0 mm 1 mps 762 mmHg 86%
    08:00 +5°C° 0 mm 1 mps 763 mmHg 79%
    09:00 +7°C° 0 mm 1 mps 763 mmHg 72%
    10:00 +7°C° 0 mm 2 mps 763 mmHg 65%
    11:00 +8°C° 0 mm 2 mps 762 mmHg 60%
    12:00 +10°C° 0 mm 3 mps 762 mmHg 56%
    13:00 +11°C° 0 mm 3 mps 762 mmHg 51%
    14:00 +11°C° 0 mm 3 mps 761 mmHg 52%
    15:00 +11°C° 0 mm 3 mps 761 mmHg 52%
    16:00 +11°C° 0 mm 3 mps 761 mmHg 53%
    17:00 +10°C° 0.1 mm 3 mps 761 mmHg 57%
    18:00 +9°C° 0.1 mm 3 mps 761 mmHg 62%
    19:00 +9°C° 0.1 mm 3 mps 761 mmHg 67%
    20:00 +7°C° 0.7 mm 4 mps 760 mmHg 72%
    21:00 +7°C° 0.7 mm 4 mps 760 mmHg 77%
    22:00 +7°C° 0.7 mm 5 mps 760 mmHg 82%
    23:00 +7°C° 0.3 mm 5 mps 760 mmHg 81%

    22 February, Friday

    Time Temperature Precipitation Wind Pressure Humidity
    00:00 +7°C° 0.3 mm 4 mps 760 mmHg 80%
    01:00 +7°C° 0.3 mm 4 mps 759 mmHg 79%
    02:00 +6°C° 0 mm 4 mps 759 mmHg 81%
    03:00 +6°C° 0 mm 4 mps 758 mmHg 83%
    04:00 +5°C° 0 mm 4 mps 758 mmHg 85%
    05:00 +5°C° 0.2 mm 4 mps 758 mmHg 86%
    06:00 +5°C° 0.2 mm 4 mps 758 mmHg 88%
    07:00 +5°C° 0.2 mm 3 mps 757 mmHg 89%
    08:00 +7°C° 0.1 mm 3 mps 757 mmHg 84%
    09:00 +7°C° 0.1 mm 4 mps 757 mmHg 79%
    10:00 +8°C° 0.1 mm 4 mps 758 mmHg 74%
    11:00 +8°C° 0.1 mm 5 mps 758 mmHg 71%
    12:00 +9°C° 0.1 mm 7 mps 758 mmHg 68%
    13:00 +9°C° 0.1 mm 8 mps 758 mmHg 65%
    14:00 +6°C° 0 mm 9 mps 758 mmHg 61%
    15:00 +5°C° 0 mm 10 mps 758 mmHg 58%
    16:00 +2°C° 0 mm 12 mps 759 mmHg 54%
    17:00 +1°C° 0 mm 11 mps 760 mmHg 54%
    18:00 -1°C° 0 mm 11 mps 761 mmHg 53%
    19:00 -3°C° 0 mm 11 mps 762 mmHg 52%
    20:00 -4°C° 0 mm 11 mps 763 mmHg 52%
    21:00 -4°C° 0 mm 10 mps 764 mmHg 51%
    22:00 -5°C° 0 mm 10 mps 765 mmHg 51%
    23:00 -5°C° 0 mm 9 mps 766 mmHg 48%

    23 February, Saturday

    Time Temperature Precipitation Wind Pressure Humidity
    00:00 -5°C° 0 mm 9 mps 767 mmHg 46%
    01:00 -6°C° 0 mm 9 mps 767 mmHg 43%
    02:00 -6°C° 0 mm 9 mps 768 mmHg 42%
    03:00 -6°C° 0 mm 8 mps 768 mmHg 40%
    04:00 -6°C° 0 mm 8 mps 768 mmHg 39%
    05:00 -6°C° 0 mm 8 mps 769 mmHg 38%
    06:00 -7°C° 0 mm 8 mps 769 mmHg 37%
    07:00 -7°C° 0 mm 8 mps 770 mmHg 36%
    08:00 -6°C° 0 mm 8 mps 770 mmHg 34%
    09:00 -4°C° 0 mm 7 mps 770 mmHg 32%
    10:00 -3°C° 0 mm 7 mps 771 mmHg 29%
    11:00 -2°C° 0 mm 7 mps 770 mmHg 29%
    12:00 -2°C° 0 mm 7 mps 770 mmHg 29%
    13:00 -1°C° 0 mm 7 mps 770 mmHg 29%
    14:00 -1°C° 0 mm 6 mps 769 mmHg 31%
    15:00 -1°C° 0 mm 6 mps 769 mmHg 32%
    16:00 -1°C° 0 mm 6 mps 769 mmHg 34%
    17:00 -1°C° 0 mm 5 mps 769 mmHg 38%
    18:00 -2°C° 0 mm 4 mps 768 mmHg 42%
    19:00 -2°C° 0 mm 3 mps 768 mmHg 45%
    20:00 -1°C° 0 mm 3 mps 768 mmHg 44%
    21:00 -1°C° 0 mm 3 mps 768 mmHg 43%
    22:00 -2°C° 0 mm 4 mps 768 mmHg 42%
    23:00 -2°C° 0 mm 4 mps 768 mmHg 42%

    24 February, Sunday

    Time Temperature Precipitation Wind Pressure Humidity
    00:00 -1°C° 0 mm 3 mps 768 mmHg 42%
    01:00 -1°C° 0 mm 3 mps 768 mmHg 43%
    02:00 -2°C° 0 mm 3 mps 768 mmHg 44%
    03:00 -2°C° 0 mm 3 mps 767 mmHg 46%
    04:00 -4°C° 0 mm 3 mps 767 mmHg 47%
    05:00 -4°C° 0 mm 3 mps 767 mmHg 49%
    06:00 -4°C° 0 mm 3 mps 767 mmHg 50%
    07:00 -4°C° 0 mm 3 mps 768 mmHg 51%
    08:00 -2°C° 0 mm 4 mps 768 mmHg 49%
    09:00 -1°C° 0 mm 4 mps 768 mmHg 47%
    10:00 0°C° 0 mm 5 mps 768 mmHg 45%
    11:00 +1°C° 0 mm 5 mps 767 mmHg 45%
    12:00 +2°C° 0 mm 5 mps 767 mmHg 45%
    13:00 +3°C° 0 mm 5 mps 767 mmHg 45%
    14:00 +2°C° 0 mm 5 mps 767 mmHg 47%
    15:00 +2°C° 0 mm 5 mps 766 mmHg 49%
    16:00 +2°C° 0 mm 5 mps 766 mmHg 51%
    17:00 +1°C° 0 mm 4 mps 766 mmHg 56%
    18:00 +1°C° 0 mm 3 mps 766 mmHg 61%
    19:00 0°C° 0 mm 3 mps 766 mmHg 66%
    20:00 0°C° 0 mm 3 mps 766 mmHg 69%
    21:00 -1°C° 0 mm 2 mps 766 mmHg 72%
    22:00 -1°C° 0 mm 2 mps 766 mmHg 76%
    23:00 -1°C° 0 mm 2 mps 766 mmHg 78%
    Show more